Погода в Панькове

Россия / Орловская область     53°02′52″N   37°32′20″E
темп.,
°C
ветер,
м/с
пор.,
м/с
влажн.,
%
обл.,
%
осадки,
мм/ч
давл.,
гПа
погр.,
м
11 мая, вт
вт1100:00+8ссв81877100 0.0 1022516
03:00+8ссв7178299 0.0 1021412
06:00+8ссв7188599 0.0 1021429
09:00+11св815828 0.0 1021571
12:00+16всв8117379 0.0 10211062
15:00+9в51289100 0.3 1023556
18:00+11в59785 0.1 1024947
21:00+8вюв411875 0.1 1025268
12 мая, ср
ср1200:00+6в37940 0.0 1026169
03:00+5всв3494100 0.0 102666
06:00+6всв4891100 0.0 1026194
09:00+10всв6973100 0.0 1024654
12:00+9св5481100 0.9 1022886
15:00+8св1188100 4.1 1020243
18:00+10юв578064 0.1 1019929
21:00+8в51391100 0.4 1018401
13 мая, чт
чт1300:00+9вюв714905 0.7 1018540
03:00+8юв5119798 0.8 1018345
06:00+8юв3896100 0.0 1019249
09:00+13ююв477799 0.0 1018587
12:00+16юв4563100 0.1 10171235
15:00+17ююв465938 0.8 10161537
18:00+16ююв4776100 0.8 1016894
21:00+12юв379262 1.8 1016136
14 мая, пт
пт1400:00+13юв3890100 0.2 1016183
03:00+12юв41093100 0.2 1016231
06:00+13вюв51393100 0.0 1016320
09:00+17юв71381100 0.1 1015658
12:00+20юв71071100 0.0 10141023
15:00+22ююв61169100 1.2 10131413
18:00+21ююв51075100 0.6 1012541
21:00+17ю338996 0.9 101231
15 мая, сб
сб1500:00+16ю3493100 3.7 101245
03:00+15ссв3396100 9.6 101062
06:00+15юв2295100 0.6 101155
09:00+17всв2288100 1.5 1010196
12:00+21ю68670 0.9 10091168
15:00+22ююз79645 1.3 10091422
18:00+20ююз5875100 0.9 1009479
21:00+15ю4109396 1.5 1009198